"read_dt","SO2 (ppb)","flags","PMT voltage (V)","lamp voltage (V)","lamp intensity (Hz)","internal temp (C)","react chamber temp (C)","sample flow (l/min)","pres (mmHg)","SO2 bkg (ppb)","SO2 coefficient"
2014-07-12 00:00:00,1813E-3,5C000000,-0724,0832,12225,031.7,045.6,0.479,738.8,01.18,0.508
2014-07-12 00:01:00,1743E-3,5C000000,-0724,0832,12009,031.6,045.6,0.480,738.8,01.18,0.508
2014-07-12 00:02:00,1935E-3,5C000000,-0724,0833,12215,031.6,045.6,0.479,738.8,01.18,0.508
2014-07-12 00:03:00,1861E-3,5C000000,-0724,0832,12138,031.5,045.6,0.479,738.8,01.18,0.508
2014-07-12 00:04:00,1796E-3,5C000000,-0724,0832,12205,031.5,045.6,0.479,738.8,01.18,0.508
2014-07-12 00:05:00,1872E-3,5C000000,-0724,0833,12146,031.4,045.6,0.480,738.8,01.18,0.508
2014-07-12 00:06:00,1830E-3,5C000000,-0724,0834,11903,031.3,045.6,0.480,738.8,01.18,0.508
2014-07-12 00:07:00,1871E-3,5C000000,-0724,0833,12158,031.3,045.6,0.480,738.9,01.18,0.508
2014-07-12 00:08:00,1741E-3,5C000000,-0724,0831,12331,031.2,045.6,0.480,738.9,01.18,0.508
2014-07-12 00:09:00,1828E-3,5C000000,-0724,0832,12350,031.1,045.6,0.480,738.9,01.18,0.508
2014-07-12 00:10:00,1872E-3,5C000000,-0724,0833,12024,031.1,045.6,0.480,739.0,01.18,0.508
2014-07-12 00:11:00,1920E-3,5C000000,-0724,0833,12256,031.1,045.6,0.481,739.0,01.18,0.508
2014-07-12 00:12:00,1822E-3,5C000000,-0724,0832,12037,031.0,045.6,0.480,739.0,01.18,0.508
2014-07-12 00:13:00,1799E-3,5C000000,-0724,0833,12094,031.0,045.6,0.480,739.0,01.18,0.508
2014-07-12 00:14:00,1715E-3,5C000000,-0724,0833,12041,031.0,045.6,0.480,739.0,01.18,0.508
2014-07-12 00:15:00,1833E-3,5C000000,-0724,0833,11995,031.0,045.6,0.480,739.0,01.18,0.508
2014-07-12 00:16:00,1868E-3,5C000000,-0724,0833,12098,030.9,045.6,0.481,739.0,01.18,0.508
2014-07-12 00:17:00,1866E-3,5C000000,-0724,0831,12175,030.9,045.6,0.480,739.0,01.18,0.508
2014-07-12 00:18:00,1712E-3,5C000000,-0724,0833,12221,030.9,045.6,0.481,739.0,01.18,0.508
2014-07-12 00:19:00,1761E-3,5C000000,-0724,0834,12204,030.9,045.6,0.480,739.0,01.18,0.508
2014-07-12 00:20:00,1750E-3,5C000000,-0724,0833,12166,030.8,045.6,0.481,739.0,01.18,0.508
2014-07-12 00:21:00,1724E-3,5C000000,-0724,0833,12316,030.8,045.6,0.480,739.0,01.18,0.508
2014-07-12 00:22:00,1828E-3,5C000000,-0724,0833,12174,030.7,045.6,0.481,739.1,01.18,0.508
2014-07-12 00:23:00,1902E-3,5C000000,-0724,0834,12131,030.7,045.6,0.480,739.1,01.18,0.508
2014-07-12 00:24:00,1678E-3,5C000000,-0724,0833,12072,030.7,045.6,0.481,739.1,01.18,0.508
2014-07-12 00:25:00,1862E-3,5C000000,-0724,0833,12326,030.7,045.6,0.480,739.1,01.18,0.508
2014-07-12 00:26:00,1846E-3,5C000000,-0724,0833,12278,030.7,045.6,0.481,739.1,01.18,0.508
2014-07-12 00:27:00,1658E-3,5C000000,-0724,0833,12301,030.6,045.6,0.481,739.1,01.18,0.508
2014-07-12 00:28:00,1864E-3,5C000000,-0724,0833,12282,030.6,045.6,0.480,739.2,01.18,0.508
2014-07-12 00:29:00,1802E-3,5C000000,-0724,0833,12193,030.6,045.6,0.481,739.2,01.18,0.508
2014-07-12 00:30:00,1680E-3,5C000000,-0724,0832,12193,030.6,045.6,0.480,739.2,01.18,0.508
2014-07-12 00:31:00,1950E-3,5C000000,-0724,0832,12073,030.6,045.6,0.481,739.2,01.18,0.508
2014-07-12 00:32:00,1634E-3,5C000000,-0724,0832,12197,030.6,045.6,0.481,739.2,01.18,0.508
2014-07-12 00:33:00,1992E-3,5C000000,-0724,0832,12146,030.6,045.6,0.481,739.2,01.18,0.508
2014-07-12 00:34:00,1828E-3,5C000000,-0724,0833,12124,030.6,045.6,0.481,739.2,01.18,0.508
2014-07-12 00:35:00,1796E-3,5C000000,-0724,0832,12114,030.6,045.6,0.480,739.2,01.18,0.508
2014-07-12 00:36:00,1792E-3,5C000000,-0724,0833,12255,030.5,045.6,0.481,739.2,01.18,0.508
2014-07-12 00:37:00,1794E-3,5C000000,-0724,0833,12300,030.5,045.6,0.480,739.2,01.18,0.508
2014-07-12 00:38:00,1877E-3,5C000000,-0724,0833,12147,030.5,045.6,0.481,739.2,01.18,0.508
2014-07-12 00:39:00,1752E-3,5C000000,-0724,0832,12295,030.5,045.6,0.480,739.2,01.18,0.508
2014-07-12 00:40:00,1833E-3,5C000000,-0724,0833,12260,030.5,045.6,0.481,739.1,01.18,0.508
2014-07-12 00:41:00,1924E-3,5C000000,-0724,0833,12269,030.5,045.6,0.480,739.1,01.18,0.508
2014-07-12 00:42:00,1744E-3,5C000000,-0724,0833,12189,030.5,045.6,0.481,739.1,01.18,0.508
2014-07-12 00:43:00,1936E-3,5C000000,-0724,0832,12168,030.5,045.6,0.481,739.1,01.18,0.508
2014-07-12 00:44:00,1887E-3,5C000000,-0724,0833,12091,030.5,045.6,0.481,739.1,01.18,0.508
2014-07-12 00:45:00,1842E-3,5C000000,-0724,0833,12113,030.5,045.6,0.481,739.1,01.18,0.508
2014-07-12 00:46:00,1871E-3,5C000000,-0724,0833,12207,030.5,045.6,0.481,739.1,01.18,0.508
2014-07-12 00:47:00,1903E-3,5C000000,-0724,0832,12073,030.5,045.6,0.481,739.1,01.18,0.508
2014-07-12 00:48:00,1808E-3,5C000000,-0724,0833,12083,030.5,045.5,0.481,739.2,01.18,0.508
2014-07-12 00:49:00,1822E-3,5C000000,-0724,0833,12170,030.5,045.6,0.481,739.1,01.18,0.508
2014-07-12 00:50:00,1747E-3,5C000000,-0724,0833,12211,030.5,045.6,0.482,739.1,01.18,0.508
2014-07-12 00:51:00,1874E-3,5C000000,-0724,0833,12280,030.4,045.6,0.481,739.1,01.18,0.508
2014-07-12 00:52:00,1774E-3,5C000000,-0724,0832,12167,030.4,045.5,0.482,739.1,01.18,0.508
2014-07-12 00:53:00,1862E-3,5C000000,-0724,0833,12083,030.4,045.6,0.481,739.1,01.18,0.508
2014-07-12 00:54:00,1774E-3,5C000000,-0724,0833,12352,030.4,045.5,0.482,739.1,01.18,0.508
2014-07-12 00:55:00,1755E-3,5C000000,-0724,0833,11975,030.4,045.5,0.481,739.1,01.18,0.508
2014-07-12 00:56:00,1777E-3,5C000000,-0724,0832,12040,030.3,045.6,0.482,739.1,01.18,0.508
2014-07-12 00:57:00,1788E-3,5C000000,-0724,0833,12276,030.3,045.6,0.481,739.1,01.18,0.508
2014-07-12 00:58:00,1910E-3,5C000000,-0724,0832,12253,030.2,045.6,0.482,739.0,01.18,0.508
2014-07-12 00:59:00,1825E-3,5C000000,-0724,0833,11983,030.2,045.5,0.482,739.0,01.18,0.508
2014-07-12 01:00:00,1790E-3,5C000000,-0724,0833,12077,030.2,045.5,0.481,739.0,01.18,0.508
2014-07-12 01:01:00,1860E-3,5C000000,-0724,0833,12125,030.2,045.5,0.482,739.0,01.18,0.508
2014-07-12 01:02:00,1769E-3,5C000000,-0724,0832,12038,030.1,045.6,0.482,739.0,01.18,0.508
2014-07-12 01:03:00,1816E-3,5C000000,-0724,0833,12124,030.1,045.6,0.481,739.0,01.18,0.508
2014-07-12 01:04:00,1772E-3,5C000000,-0724,0833,12200,030.1,045.5,0.482,739.0,01.18,0.508
2014-07-12 01:05:00,1802E-3,5C000000,-0724,0832,12300,030.1,045.5,0.482,739.0,01.18,0.508
2014-07-12 01:06:00,1783E-3,5C000000,-0724,0833,12306,030.1,045.6,0.482,739.0,01.18,0.508
2014-07-12 01:07:00,1801E-3,5C000000,-0724,0831,12103,030.1,045.6,0.482,739.0,01.18,0.508
2014-07-12 01:08:00,1999E-3,5C000000,-0724,0832,12144,030.1,045.5,0.482,739.0,01.18,0.508
2014-07-12 01:09:00,1634E-3,5C000000,-0724,0832,12138,030.0,045.5,0.482,739.0,01.18,0.508
2014-07-12 01:10:00,1929E-3,5C000000,-0724,0833,12248,030.0,045.5,0.482,739.0,01.18,0.508
2014-07-12 01:11:00,1929E-3,5C000000,-0724,0833,11905,030.0,045.6,0.482,739.1,01.18,0.508
2014-07-12 01:12:00,1802E-3,5C000000,-0724,0832,12049,030.0,045.5,0.482,739.1,01.18,0.508
2014-07-12 01:13:00,1761E-3,5C000000,-0724,0833,12174,030.0,045.6,0.482,739.1,01.18,0.508
2014-07-12 01:14:00,1668E-3,5C000000,-0724,0833,12242,029.9,045.5,0.482,739.1,01.18,0.508
2014-07-12 01:15:00,1852E-3,5C000000,-0724,0833,12250,030.0,045.5,0.482,739.1,01.18,0.508
2014-07-12 01:16:00,1733E-3,5C000000,-0724,0833,12064,029.9,045.6,0.482,739.1,01.18,0.508
2014-07-12 01:17:00,1827E-3,5C000000,-0724,0832,12186,029.9,045.6,0.482,739.1,01.18,0.508
2014-07-12 01:18:00,1731E-3,5C000000,-0724,0832,12078,029.8,045.6,0.482,739.1,01.18,0.508
2014-07-12 01:19:00,1693E-3,5C000000,-0724,0833,12257,029.8,045.6,0.482,739.1,01.18,0.508
2014-07-12 01:20:00,1758E-3,5C000000,-0724,0832,12158,029.8,045.6,0.483,739.0,01.18,0.508
2014-07-12 01:21:00,1630E-3,5C000000,-0724,0833,12159,029.8,045.5,0.483,739.0,01.18,0.508
2014-07-12 01:22:00,1835E-3,5C000000,-0724,0831,12274,029.8,045.5,0.483,739.1,01.18,0.508
2014-07-12 01:23:00,1818E-3,5C000000,-0724,0833,12166,029.8,045.5,0.483,739.1,01.18,0.508
2014-07-12 01:24:00,1837E-3,5C000000,-0724,0833,12152,029.8,045.5,0.482,739.1,01.18,0.508
2014-07-12 01:25:00,1830E-3,5C000000,-0724,0833,12059,029.8,045.5,0.482,739.1,01.18,0.508
2014-07-12 01:26:00,1859E-3,5C000000,-0724,0833,12109,029.8,045.5,0.482,739.2,01.18,0.508
2014-07-12 01:27:00,1884E-3,5C000000,-0724,0833,12096,029.9,045.6,0.482,739.2,01.18,0.508
2014-07-12 01:28:00,1850E-3,5C000000,-0724,0832,12263,029.9,045.6,0.482,739.2,01.18,0.508
2014-07-12 01:29:00,1859E-3,5C000000,-0724,0832,11968,029.9,045.5,0.482,739.2,01.18,0.508
2014-07-12 01:30:00,1801E-3,5C000000,-0724,0833,12340,029.8,045.5,0.482,739.2,01.18,0.508
2014-07-12 01:31:00,1892E-3,5C000000,-0724,0832,11911,029.9,045.5,0.482,739.2,01.18,0.508
2014-07-12 01:32:00,1838E-3,5C000000,-0724,0833,12043,029.9,045.5,0.482,739.2,01.18,0.508
2014-07-12 01:33:00,1720E-3,5C000000,-0724,0833,12112,029.9,045.5,0.482,739.2,01.18,0.508
2014-07-12 01:34:00,1804E-3,5C000000,-0724,0832,12347,030.0,045.6,0.482,739.2,01.18,0.508
2014-07-12 01:35:00,1851E-3,5C000000,-0724,0833,12279,030.0,045.6,0.482,739.2,01.18,0.508
2014-07-12 01:36:00,1859E-3,5C000000,-0724,0832,12223,030.0,045.6,0.482,739.2,01.18,0.508
2014-07-12 01:37:00,1835E-3,5C000000,-0724,0833,12224,030.1,045.6,0.482,739.2,01.18,0.508
2014-07-12 01:38:00,1872E-3,5C000000,-0724,0833,12072,030.1,045.6,0.482,739.2,01.18,0.508
2014-07-12 01:39:00,1890E-3,5C000000,-0724,0833,12145,030.1,045.5,0.481,739.2,01.18,0.508
2014-07-12 01:40:00,1859E-3,5C000000,-0724,0833,12145,030.2,045.6,0.481,739.2,01.18,0.508
2014-07-12 01:41:00,1796E-3,5C000000,-0724,0832,12160,030.1,045.6,0.481,739.3,01.18,0.508
2014-07-12 01:42:00,1824E-3,5C000000,-0724,0833,12218,030.2,045.6,0.481,739.2,01.18,0.508
2014-07-12 01:43:00,1829E-3,5C000000,-0724,0833,12186,030.2,045.6,0.482,739.2,01.18,0.508
2014-07-12 01:44:00,1841E-3,5C000000,-0724,0833,12373,030.2,045.6,0.482,739.3,01.18,0.508
2014-07-12 01:45:00,1818E-3,5C000000,-0724,0833,12273,030.2,045.5,0.482,739.2,01.18,0.508
2014-07-12 01:46:00,1696E-3,5C000000,-0724,0831,12139,030.2,045.6,0.482,739.2,01.18,0.508
2014-07-12 01:47:00,1950E-3,5C000000,-0724,0832,12160,030.3,045.5,0.481,739.2,01.18,0.508
2014-07-12 01:48:00,1797E-3,5C000000,-0724,0832,12133,030.2,045.5,0.481,739.2,01.18,0.508
2014-07-12 01:49:00,1838E-3,5C000000,-0724,0833,12264,030.3,045.6,0.481,739.2,01.18,0.508
2014-07-12 01:50:00,1743E-3,5C000000,-0724,0833,12132,030.3,045.6,0.481,739.2,01.18,0.508
2014-07-12 01:51:00,1790E-3,5C000000,-0724,0833,12249,030.3,045.6,0.481,739.2,01.18,0.508
2014-07-12 01:52:00,1906E-3,5C000000,-0724,0833,11971,030.4,045.6,0.481,739.2,01.18,0.508
2014-07-12 01:53:00,1935E-3,5C000000,-0724,0833,12293,030.3,045.6,0.481,739.2,01.18,0.508
2014-07-12 01:54:00,1894E-3,5C000000,-0724,0833,12314,030.3,045.6,0.481,739.2,01.18,0.508
2014-07-12 01:55:00,1857E-3,5C000000,-0724,0832,12207,030.4,045.6,0.481,739.2,01.18,0.508
2014-07-12 01:56:00,1674E-3,5C000000,-0724,0832,12233,030.4,045.6,0.481,739.2,01.18,0.508
2014-07-12 01:57:00,1771E-3,5C000000,-0724,0833,12299,030.3,045.6,0.481,739.2,01.18,0.508
2014-07-12 01:58:00,1797E-3,5C000000,-0724,0832,11868,030.3,045.6,0.482,739.2,01.18,0.508
2014-07-12 01:59:00,1811E-3,5C000000,-0724,0832,12079,030.3,045.5,0.481,739.2,01.18,0.508
2014-07-12 02:00:00,1811E-3,5C000000,-0724,0832,12175,030.3,045.5,0.481,739.1,01.18,0.508
2014-07-12 02:01:00,1842E-3,5C000000,-0724,0832,12238,030.3,045.5,0.482,739.2,01.18,0.508
2014-07-12 02:02:00,1735E-3,5C000000,-0724,0833,12178,030.3,045.5,0.481,739.1,01.18,0.508
2014-07-12 02:03:00,1805E-3,5C000000,-0724,0833,11930,030.3,045.6,0.482,739.1,01.18,0.508
2014-07-12 02:04:00,1856E-3,5C000000,-0724,0832,12171,030.2,045.6,0.482,739.1,01.18,0.508
2014-07-12 02:05:00,1692E-3,5C000000,-0724,0833,12294,030.2,045.6,0.481,739.1,01.18,0.508
2014-07-12 02:06:00,1791E-3,5C000000,-0724,0833,12350,030.2,045.6,0.481,739.1,01.18,0.508
2014-07-12 02:07:00,1746E-3,5C000000,-0724,0833,12265,030.2,045.6,0.482,739.1,01.18,0.508
2014-07-12 02:08:00,1831E-3,5C000000,-0724,0832,12020,030.2,045.5,0.482,739.1,01.18,0.508
2014-07-12 02:09:00,1849E-3,5C000000,-0724,0832,12075,030.2,045.6,0.481,739.0,01.18,0.508
2014-07-12 02:10:00,1780E-3,5C000000,-0724,0832,12248,030.2,045.6,0.481,739.1,01.18,0.508
2014-07-12 02:11:00,1863E-3,5C000000,-0724,0832,12127,030.2,045.5,0.482,739.0,01.18,0.508
2014-07-12 02:12:00,1780E-3,5C000000,-0724,0832,12243,030.2,045.5,0.482,739.0,01.18,0.508
2014-07-12 02:13:00,1744E-3,5C000000,-0724,0833,12255,030.2,045.6,0.482,739.0,01.18,0.508
2014-07-12 02:14:00,1878E-3,5C000000,-0724,0833,12093,030.1,045.6,0.481,739.0,01.18,0.508
2014-07-12 02:15:00,1738E-3,5C000000,-0724,0832,12136,030.1,045.6,0.481,739.0,01.18,0.508
2014-07-12 02:16:00,1854E-3,5C000000,-0724,0831,12189,030.2,045.6,0.481,739.0,01.18,0.508
2014-07-12 02:17:00,1754E-3,5C000000,-0724,0832,12175,030.1,045.5,0.482,739.0,01.18,0.508
2014-07-12 02:18:00,1871E-3,5C000000,-0724,0833,12224,030.2,045.5,0.482,739.0,01.18,0.508
2014-07-12 02:19:00,1870E-3,5C000000,-0724,0832,12314,030.1,045.5,0.482,738.9,01.18,0.508
2014-07-12 02:20:00,1768E-3,5C000000,-0724,0832,12146,030.1,045.6,0.482,738.9,01.18,0.508
2014-07-12 02:21:00,1785E-3,5C000000,-0724,0833,12201,030.1,045.6,0.482,738.9,01.18,0.508
2014-07-12 02:22:00,1802E-3,5C000000,-0724,0833,12142,030.1,045.6,0.482,739.0,01.18,0.508
2014-07-12 02:23:00,1805E-3,5C000000,-0724,0832,12136,030.2,045.5,0.481,739.0,01.18,0.508
2014-07-12 02:24:00,1758E-3,5C000000,-0724,0833,12171,030.1,045.5,0.481,739.0,01.18,0.508
2014-07-12 02:25:00,1748E-3,5C000000,-0724,0832,12136,030.1,045.6,0.481,739.0,01.18,0.508
2014-07-12 02:26:00,1867E-3,5C000000,-0724,0832,12172,030.1,045.5,0.482,739.0,01.18,0.508
2014-07-12 02:27:00,1845E-3,5C000000,-0724,0832,12153,030.1,045.5,0.482,739.0,01.18,0.508
2014-07-12 02:28:00,1706E-3,5C000000,-0724,0832,12080,030.1,045.5,0.482,739.0,01.18,0.508
2014-07-12 02:29:00,1835E-3,5C000000,-0724,0832,11940,030.1,045.5,0.482,739.0,01.18,0.508
2014-07-12 02:30:00,1844E-3,5C000000,-0724,0833,12253,030.1,045.5,0.482,739.0,01.18,0.508
2014-07-12 02:31:00,1776E-3,5C000000,-0724,0832,12148,030.1,045.6,0.482,739.1,01.18,0.508
2014-07-12 02:32:00,1744E-3,5C000000,-0724,0832,12127,030.0,045.6,0.481,739.0,01.18,0.508
2014-07-12 02:33:00,1720E-3,5C000000,-0724,0833,12192,030.1,045.5,0.481,739.1,01.18,0.508
2014-07-12 02:34:00,1783E-3,5C000000,-0724,0833,12172,030.1,045.5,0.482,739.1,01.18,0.508
2014-07-12 02:35:00,1751E-3,5C000000,-0724,0833,12217,030.1,045.5,0.482,739.1,01.18,0.508
2014-07-12 02:36:00,1752E-3,5C000000,-0724,0833,12239,030.1,045.5,0.482,739.1,01.18,0.508
2014-07-12 02:37:00,1802E-3,5C000000,-0724,0832,12296,030.2,045.6,0.482,739.1,01.18,0.508
2014-07-12 02:38:00,1790E-3,5C000000,-0724,0831,12083,030.2,045.6,0.482,739.1,01.18,0.508
2014-07-12 02:39:00,1764E-3,5C000000,-0724,0832,12092,030.2,045.5,0.482,739.1,01.18,0.508
2014-07-12 02:40:00,1908E-3,5C000000,-0724,0834,12414,030.2,045.6,0.482,739.1,01.18,0.508
2014-07-12 02:41:00,1838E-3,5C000000,-0724,0832,12241,030.2,045.5,0.482,739.1,01.18,0.508
2014-07-12 02:42:00,1889E-3,5C000000,-0724,0832,12153,030.1,045.6,0.482,739.1,01.18,0.508
2014-07-12 02:43:00,1813E-3,5C000000,-0724,0833,12278,030.0,045.6,0.482,739.1,01.18,0.508
2014-07-12 02:44:00,1924E-3,5C000000,-0724,0834,12097,030.1,045.6,0.481,739.1,01.18,0.508
2014-07-12 02:45:00,1975E-3,5C000000,-0724,0833,12130,030.1,045.6,0.481,739.1,01.18,0.508
2014-07-12 02:46:00,1813E-3,5C000000,-0724,0832,12184,030.1,045.6,0.482,739.1,01.18,0.508
2014-07-12 02:47:00,1906E-3,5C000000,-0724,0833,12095,030.1,045.5,0.482,739.1,01.18,0.508
2014-07-12 02:48:00,1711E-3,5C000000,-0724,0833,12005,030.2,045.5,0.482,739.1,01.18,0.508
2014-07-12 02:49:00,1886E-3,5C000000,-0724,0833,12246,030.2,045.6,0.482,739.1,01.18,0.508
2014-07-12 02:50:00,1884E-3,5C000000,-0724,0833,12036,030.2,045.6,0.482,739.1,01.18,0.508
2014-07-12 02:51:00,1766E-3,5C000000,-0724,0834,12288,030.2,045.6,0.481,739.1,01.18,0.508
2014-07-12 02:52:00,1975E-3,5C000000,-0724,0833,12231,030.2,045.6,0.481,739.1,01.18,0.508
2014-07-12 02:53:00,1638E-3,5C000000,-0724,0833,12332,030.3,045.6,0.481,739.1,01.18,0.508
2014-07-12 02:54:00,1771E-3,5C000000,-0724,0833,12025,030.3,045.6,0.482,739.2,01.18,0.508
2014-07-12 02:55:00,1705E-3,5C000000,-0724,0834,12226,030.3,045.6,0.482,739.1,01.18,0.508
2014-07-12 02:56:00,1788E-3,5C000000,-0724,0833,12108,030.3,045.6,0.481,739.1,01.18,0.508
2014-07-12 02:57:00,1824E-3,5C000000,-0724,0833,12341,030.3,045.6,0.481,739.1,01.18,0.508
2014-07-12 02:58:00,1842E-3,5C000000,-0724,0833,12263,030.3,045.6,0.481,739.1,01.18,0.508
2014-07-12 02:59:00,1855E-3,5C000000,-0724,0833,12183,030.3,045.5,0.481,739.1,01.18,0.508
2014-07-12 03:00:00,1818E-3,5C000000,-0724,0833,12183,030.3,045.5,0.481,739.1,01.18,0.508
2014-07-12 03:01:00,1679E-3,5C000000,-0724,0833,12174,030.3,045.6,0.481,739.1,01.18,0.508
2014-07-12 03:02:00,1752E-3,5C000000,-0724,0833,12073,030.4,045.6,0.481,739.1,01.18,0.508
2014-07-12 03:03:00,1778E-3,5C000000,-0724,0833,12131,030.4,045.6,0.481,739.1,01.18,0.508
2014-07-12 03:04:00,1941E-3,5C000000,-0724,0833,12251,030.4,045.6,0.481,739.1,01.18,0.508
2014-07-12 03:05:00,1818E-3,5C000000,-0724,0832,12268,030.4,045.6,0.481,739.1,01.18,0.508
2014-07-12 03:06:00,1822E-3,5C000000,-0724,0833,12023,030.4,045.6,0.481,739.1,01.18,0.508
2014-07-12 03:07:00,1720E-3,5C000000,-0724,0833,12113,030.4,045.6,0.481,739.1,01.18,0.508
2014-07-12 03:08:00,1858E-3,5C000000,-0724,0833,12056,030.4,045.6,0.481,739.1,01.18,0.508
2014-07-12 03:09:00,1841E-3,5C000000,-0724,0833,12084,030.4,045.6,0.481,739.2,01.18,0.508
2014-07-12 03:10:00,1771E-3,5C000000,-0724,0833,12097,030.4,045.6,0.481,739.2,01.18,0.508
2014-07-12 03:11:00,1747E-3,5C000000,-0724,0833,12192,030.5,045.6,0.481,739.2,01.18,0.508
2014-07-12 03:12:00,1905E-3,5C000000,-0724,0833,12247,030.4,045.6,0.481,739.2,01.18,0.508
2014-07-12 03:13:00,1755E-3,5C000000,-0724,0833,12157,030.5,045.6,0.481,739.2,01.18,0.508
2014-07-12 03:14:00,1791E-3,5C000000,-0724,0832,12137,030.5,045.6,0.481,739.2,01.18,0.508
2014-07-12 03:15:00,1909E-3,5C000000,-0724,0833,12132,030.5,045.5,0.481,739.2,01.18,0.508
2014-07-12 03:16:00,1752E-3,5C000000,-0724,0833,12167,030.5,045.6,0.481,739.2,01.18,0.508
2014-07-12 03:17:00,1840E-3,5C000000,-0724,0832,12289,030.5,045.6,0.481,739.2,01.18,0.508
2014-07-12 03:18:00,1725E-3,5C000000,-0724,0832,12094,030.5,045.6,0.481,739.2,01.18,0.508
2014-07-12 03:19:00,1914E-3,5C000000,-0724,0833,11991,030.5,045.6,0.481,739.2,01.18,0.508
2014-07-12 03:20:00,1743E-3,5C000000,-0724,0833,12216,030.5,045.6,0.481,739.2,01.18,0.508
2014-07-12 03:21:00,1803E-3,5C000000,-0724,0833,12168,030.5,045.6,0.481,739.2,01.18,0.508
2014-07-12 03:22:00,1785E-3,5C000000,-0724,0834,12284,030.5,045.6,0.481,739.2,01.18,0.508
2014-07-12 03:23:00,1751E-3,5C000000,-0724,0833,12246,030.5,045.6,0.481,739.2,01.18,0.508
2014-07-12 03:24:00,1795E-3,5C000000,-0724,0832,12049,030.5,045.6,0.481,739.2,01.18,0.508
2014-07-12 03:25:00,1820E-3,5C000000,-0724,0833,12302,030.5,045.6,0.481,739.2,01.18,0.508
2014-07-12 03:26:00,1849E-3,5C000000,-0724,0833,12107,030.6,045.6,0.481,739.3,01.18,0.508
2014-07-12 03:27:00,1861E-3,5C000000,-0724,0833,12249,030.6,045.6,0.480,739.3,01.18,0.508
2014-07-12 03:28:00,1745E-3,5C000000,-0724,0833,12249,030.6,045.6,0.481,739.3,01.18,0.508
2014-07-12 03:29:00,1841E-3,5C000000,-0724,0833,12245,030.6,045.6,0.481,739.3,01.18,0.508
2014-07-12 03:30:00,1952E-3,5C000000,-0724,0832,12137,030.6,045.6,0.480,739.2,01.18,0.508
2014-07-12 03:31:00,1772E-3,5C000000,-0724,0833,12266,030.6,045.6,0.481,739.3,01.18,0.508
2014-07-12 03:32:00,1640E-3,5C000000,-0724,0832,11873,030.6,045.6,0.481,739.3,01.18,0.508
2014-07-12 03:33:00,1813E-3,5C000000,-0724,0833,12247,030.6,045.6,0.481,739.3,01.18,0.508
2014-07-12 03:34:00,1928E-3,5C000000,-0724,0833,12228,030.6,045.6,0.481,739.3,01.18,0.508
2014-07-12 03:35:00,1726E-3,5C000000,-0724,0832,12097,030.6,045.6,0.480,739.3,01.18,0.508
2014-07-12 03:36:00,1706E-3,5C000000,-0724,0832,12192,030.6,045.6,0.481,739.3,01.18,0.508
2014-07-12 03:37:00,1714E-3,5C000000,-0724,0832,12144,030.6,045.6,0.481,739.3,01.18,0.508
2014-07-12 03:38:00,1900E-3,5C000000,-0724,0832,12210,030.6,045.6,0.480,739.3,01.18,0.508
2014-07-12 03:39:00,1829E-3,5C000000,-0724,0832,12021,030.6,045.6,0.481,739.3,01.18,0.508
2014-07-12 03:40:00,1940E-3,5C000000,-0724,0833,12168,030.6,045.6,0.480,739.3,01.18,0.508
2014-07-12 03:41:00,1916E-3,5C000000,-0724,0833,12184,030.6,045.6,0.481,739.3,01.18,0.508
2014-07-12 03:42:00,1871E-3,5C000000,-0724,0832,12173,030.6,045.6,0.481,739.3,01.18,0.508
2014-07-12 03:43:00,1836E-3,5C000000,-0724,0833,12020,030.6,045.6,0.480,739.3,01.18,0.508
2014-07-12 03:44:00,1750E-3,5C000000,-0724,0833,11854,030.6,045.6,0.481,739.3,01.18,0.508
2014-07-12 03:45:00,1932E-3,5C000000,-0724,0832,12202,030.6,045.6,0.481,739.3,01.18,0.508
2014-07-12 03:46:00,1875E-3,5C000000,-0724,0833,12058,030.6,045.6,0.481,739.3,01.18,0.508
2014-07-12 03:47:00,1721E-3,5C000000,-0724,0832,12135,030.6,045.6,0.481,739.3,01.18,0.508
2014-07-12 03:48:00,1987E-3,5C000000,-0724,0833,12135,030.6,045.6,0.480,739.3,01.18,0.508
2014-07-12 03:49:00,1792E-3,5C000000,-0724,0833,12276,030.7,045.6,0.481,739.3,01.18,0.508
2014-07-12 03:50:00,1722E-3,5C000000,-0724,0833,12231,030.6,045.6,0.480,739.3,01.18,0.508
2014-07-12 03:51:00,1759E-3,5C000000,-0724,0833,12187,030.6,045.6,0.481,739.3,01.18,0.508
2014-07-12 03:52:00,1875E-3,5C000000,-0724,0832,12175,030.6,045.6,0.481,739.3,01.18,0.508
2014-07-12 03:53:00,1852E-3,5C000000,-0724,0833,12310,030.6,045.6,0.480,739.3,01.18,0.508
2014-07-12 03:54:00,1727E-3,5C000000,-0724,0832,12275,030.7,045.6,0.481,739.3,01.18,0.508
2014-07-12 03:55:00,1914E-3,5C000000,-0724,0834,12256,030.6,045.6,0.480,739.3,01.18,0.508
2014-07-12 03:56:00,2092E-3,5C000000,-0724,0832,11994,030.7,045.6,0.481,739.3,01.18,0.508
2014-07-12 03:57:00,1781E-3,5C000000,-0724,0834,12346,030.6,045.6,0.481,739.3,01.18,0.508
2014-07-12 03:58:00,1887E-3,5C000000,-0724,0833,12184,030.6,045.6,0.480,739.3,01.18,0.508
2014-07-12 03:59:00,1747E-3,5C000000,-0724,0833,12099,030.6,045.6,0.481,739.3,01.18,0.508
2014-07-12 04:00:00,1950E-3,5C000000,-0724,0833,12220,030.7,045.6,0.480,739.3,01.18,0.508
2014-07-12 04:01:00,1782E-3,5C000000,-0724,0833,12111,030.7,045.6,0.481,739.3,01.18,0.508
2014-07-12 04:02:00,1820E-3,5C000000,-0724,0833,12025,030.6,045.6,0.481,739.3,01.18,0.508
2014-07-12 04:03:00,1826E-3,5C000000,-0724,0833,12187,030.6,045.6,0.480,739.3,01.18,0.508
2014-07-12 04:04:00,1760E-3,5C000000,-0724,0833,12327,030.7,045.5,0.481,739.3,01.18,0.508
2014-07-12 04:05:00,1790E-3,5C000000,-0724,0832,12180,030.6,045.6,0.480,739.3,01.18,0.508
2014-07-12 04:06:00,1850E-3,5C000000,-0724,0833,12215,030.7,045.6,0.481,739.3,01.18,0.508
2014-07-12 04:07:00,1801E-3,5C000000,-0724,0834,12122,030.7,045.6,0.481,739.3,01.18,0.508
2014-07-12 04:08:00,1838E-3,5C000000,-0724,0833,12161,030.7,045.6,0.480,739.3,01.18,0.508
2014-07-12 04:09:00,1723E-3,5C000000,-0724,0833,12227,030.7,045.6,0.481,739.3,01.18,0.508
2014-07-12 04:10:00,1788E-3,5C000000,-0724,0833,12201,030.7,045.6,0.480,739.3,01.18,0.508
2014-07-12 04:11:00,1832E-3,5C000000,-0724,0833,12284,030.7,045.6,0.481,739.2,01.18,0.508
2014-07-12 04:12:00,1841E-3,5C000000,-0724,0833,12238,030.6,045.6,0.480,739.2,01.18,0.508
2014-07-12 04:13:00,1880E-3,5C000000,-0724,0834,12229,030.7,045.6,0.481,739.2,01.18,0.508
2014-07-12 04:14:00,1864E-3,5C000000,-0724,0833,12209,030.7,045.6,0.481,739.3,01.18,0.508
2014-07-12 04:15:00,1738E-3,5C000000,-0724,0833,12185,030.7,045.6,0.480,739.2,01.18,0.508
2014-07-12 04:16:00,1748E-3,5C000000,-0724,0833,12175,030.6,045.6,0.481,739.2,01.18,0.508
2014-07-12 04:17:00,1827E-3,5C000000,-0724,0833,12313,030.7,045.6,0.480,739.3,01.18,0.508
2014-07-12 04:18:00,1804E-3,5C000000,-0724,0832,12192,030.7,045.6,0.481,739.3,01.18,0.508
2014-07-12 04:19:00,1826E-3,5C000000,-0724,0832,12093,030.7,045.6,0.481,739.3,01.18,0.508
2014-07-12 04:20:00,1757E-3,5C000000,-0724,0833,12226,030.6,045.5,0.481,739.3,01.18,0.508